"Timestamp","TZ","WindDir_Mean (deg)","WindSpd_Mean (km/h)","WindSpd_Min (km/h)","WindSpd_Max (km/h)","Temp_Mean (deg)","RH_Mean (%)","MSLP_Mean (hPa)","Rain_Acc (mm)","Rain_Intensity (mm/h)","Hail_Acc (hits/cm2)","Hail_Intensity (hits/cm2hr)","Solar_Mean (W/m2)"
2018/06/27 00:00:00.000,n,234,2.52,1.8,3.24,15.5,71.8,1029.82,0,0,0,0,0.028687
2018/06/27 00:01:00.000,n,126,2.16,1.8,4.32,15.5,71.8,1029.82,0,0,0,0,0.031319
2018/06/27 00:02:00.000,n,197,2.52,2.16,2.88,15.5,71.8,1029.72,0,0,0,0,0.028687
2018/06/27 00:03:00.000,n,166,3.6,2.52,4.68,15.5,71.8,1029.72,0,0,0,0,0.029602
2018/06/27 00:04:00.005,n,275,2.52,2.16,3.6,15.5,71.8,1029.62,0,0,0,0,0.033073
2018/06/27 00:05:00.002,n,143,2.52,1.8,2.88,15.4,71.9,1029.62,0,0,0,0,0.030479
2018/06/27 00:06:00.000,n,169,5.76,3.96,6.84,15.4,71.9,1029.52,0,0,0,0,0.031319
2018/06/27 00:07:00.000,n,191,2.88,0.72,5.4,15.4,71.9,1029.52,0,0,0,0,0.026131
2018/06/27 00:08:00.013,n,141,5.04,3.24,6.48,15.4,71.9,1029.42,0,0,0,0,0.025253
2018/06/27 00:09:00.010,n,154,6.84,5.04,8.64,15.4,71.9,1029.42,0,0,0,0,0.030479
2018/06/27 00:10:00.000,n,157,6.12,5.76,6.48,15.3,72.1,1029.32,0,0,0,0,0.029602
2018/06/27 00:11:00.000,n,121,1.44,0.72,4.32,15.3,72.2,1029.32,0,0,0,0,0.026131
2018/06/27 00:12:00.003,n,140,3.24,2.88,3.96,15.3,72.3,1029.42,0,0,0,0,0.027847
2018/06/27 00:13:00.001,n,140,3.6,2.88,4.68,15.3,72.4,1029.52,0,0,0,0,0.026131
2018/06/27 00:14:00.000,n,163,6.84,6.48,7.56,15.3,72.6,1029.52,0,0,0,0,0.025253
2018/06/27 00:15:00.000,n,144,2.52,1.8,3.6,15.3,72.7,1029.62,0,0,0,0,0.031319
2018/06/27 00:16:00.009,n,135,1.44,1.08,2.16,15.3,72.7,1029.72,0,0,0,0,0.033951
2018/06/27 00:17:00.007,n,227,0.72,0.36,0.72,15.2,72.6,1029.72,0,0,0,0,0.02697
2018/06/27 00:18:00.005,n,264,2.52,2.16,2.52,15.2,72.6,1029.72,0,0,0,0,0.022621
2018/06/27 00:19:00.000,n,273,2.52,2.16,3.24,15.2,72.7,1029.72,0,0,0,0,0.023499
2018/06/27 00:20:00.000,n,281,2.16,1.8,2.88,15.2,72.7,1029.72,0,0,0,0,0.022621
2018/06/27 00:21:00.000,n,250,6.12,6.12,6.48,15.2,72.7,1029.72,0,0,0,0,0.020905
2018/06/27 00:22:00.000,n,268,5.76,5.4,6.48,15.2,72.7,1029.72,0,0,0,0,0.02697
2018/06/27 00:23:00.000,n,264,4.68,3.96,5.4,15.2,72.8,1029.72,0,0,0,0,0.024338
2018/06/27 00:24:00.007,n,250,2.52,2.16,2.88,15.2,72.8,1029.82,0,0,0,0,0.024338
2018/06/27 00:25:00.005,n,300,2.16,1.44,2.52,15.2,72.8,1029.82,0,0,0,0,0.025253
2018/06/27 00:26:00.003,n,255,3.24,3.24,3.6,15.2,72.9,1029.72,0,0,0,0,0.025253
2018/06/27 00:27:00.001,n,189,1.44,0.72,1.44,15.2,72.9,1029.72,0,0,0,0,0.021744
2018/06/27 00:28:00.000,n,265,1.08,0.36,1.8,15.2,73,1029.72,0,0,0,0,0.029602
2018/06/27 00:29:00.000,n,280,3.24,2.88,3.96,15.2,73,1029.72,0,0,0,0,0.023499
2018/06/27 00:30:00.000,n,247,4.32,3.96,4.68,15.2,73,1029.72,0,0,0,0,0.027847
2018/06/27 00:31:00.006,n,264,3.6,3.6,3.96,15.2,73,1029.72,0,0,0,0,0.028687
2018/06/27 00:32:00.003,n,266,5.76,5.76,6.12,15.2,73,1029.72,0,0,0,0,0.025253
2018/06/27 00:33:00.001,n,265,4.68,4.32,5.04,15.2,73.1,1029.72,0,0,0,0,0.022621
2018/06/27 00:34:00.000,n,251,3.6,3.24,3.96,15.1,73.1,1029.72,0,0,0,0,0.023499
2018/06/27 00:35:00.012,n,252,3.96,3.6,4.32,15.1,73.2,1029.72,0,0,0,0,0.022621
2018/06/27 00:36:00.009,n,295,2.52,2.16,2.88,15.1,73.2,1029.72,0,0,0,0,0.026131
2018/06/27 00:37:00.000,n,256,3.24,3.24,3.6,15.1,73.2,1029.72,0,0,0,0,0.023499
2018/06/27 00:38:00.000,n,252,4.68,4.32,5.04,15.1,73.2,1029.82,0,0,0,0,0.023499
2018/06/27 00:39:00.000,n,246,3.24,2.88,3.6,15.1,73.2,1029.82,0,0,0,0,0.021744
2018/06/27 00:40:00.000,n,254,2.16,1.8,2.88,15.1,73.2,1029.92,0,0,0,0,0.021744
2018/06/27 00:41:00.000,n,256,4.32,3.6,5.04,15.1,73.2,1029.92,0,0,0,0,0.024338
2018/06/27 00:42:00.007,n,264,3.96,3.24,4.32,15.1,73.2,1029.92,0,0,0,0,0.021744
2018/06/27 00:43:00.005,n,248,5.04,4.68,5.04,15.1,73.2,1029.92,0,0,0,0,0.021744
2018/06/27 00:44:00.001,n,255,4.32,3.96,4.68,15.1,73.3,1029.92,0,0,0,0,0.020905
2018/06/27 00:45:00.015,n,223,0.72,0.36,1.44,15.1,73.3,1029.82,0,0,0,0,0.025253
2018/06/27 00:46:00.000,n,272,2.52,2.52,2.88,15.1,73.3,1029.82,0,0,0,0,0.023499
2018/06/27 00:47:00.000,n,259,3.96,3.6,4.68,15.1,73.3,1029.82,0,0,0,0,0.022621
2018/06/27 00:48:00.000,n,245,3.96,3.6,3.96,15.1,73.3,1029.82,0,0,0,0,0.027847
2018/06/27 00:49:00.004,n,255,3.6,2.88,4.32,15.1,73.3,1029.82,0,0,0,0,0.027847
2018/06/27 00:50:00.001,n,273,1.44,1.08,1.8,15.1,73.4,1029.82,0,0,0,0,0.020905
2018/06/27 00:51:00.000,n,249,2.52,1.8,2.88,15.1,73.3,1029.72,0,0,0,0,0.022621
2018/06/27 00:52:00.012,n,315,1.44,0.72,1.8,15.1,73.3,1029.72,0,0,0,0,0.020905
2018/06/27 00:53:00.009,n,273,1.44,0.72,1.44,15,73.4,1029.62,0,0,0,0,0.024338
2018/06/27 00:54:00.006,n,220,1.44,0.36,2.16,15,73.4,1029.52,0,0,0,0,0.019989
2018/06/27 00:55:00.000,n,147,2.88,1.08,3.6,15.1,73.5,1029.32,0,0,0,0,0.01915
2018/06/27 00:56:00.000,n,223,1.08,0.36,2.52,15.1,73.4,1029.22,0,0,0,0,0.01915
2018/06/27 00:57:00.000,n,156,5.76,5.04,6.48,15.1,73.4,1029.12,0,0,0,0,0.019989
2018/06/27 00:58:00.000,n,151,3.24,2.16,3.6,15.1,73.3,1029.02,0,0,0,0,0.019989
2018/06/27 00:59:00.000,n,164,3.24,2.16,3.96,15.1,73.2,1029.02,0,0,0,0,0.020905
2018/06/27 01:00:00.007,n,180,2.52,2.16,3.24,15.1,73.2,1029.02,0,0,0,0,0.026131
2018/06/27 01:01:00.004,n,126,3.6,3.24,3.96,15.1,73.2,1029.02,0,0,0,0,0.02697
2018/06/27 01:02:00.001,n,135,2.88,2.16,3.96,15.1,73.2,1029.12,0,0,0,0,0.022621
2018/06/27 01:03:00.015,n,163,2.88,2.52,3.6,15.1,73.2,1029.12,0,0,0,0,0.02697
2018/06/27 01:04:00.000,n,162,2.16,1.8,2.52,15.1,73.2,1029.12,0,0,0,0,0.023499
2018/06/27 01:05:00.000,n,129,1.44,0.72,2.52,15.1,73.3,1029.12,0,0,0,0,0.026131
2018/06/27 01:06:00.000,n,92,0.72,0.36,0.72,15.1,73.3,1029.22,0,0,0,0,0.018272
2018/06/27 01:07:00.004,n,268,0.36,0.36,0.72,15,73.4,1029.22,0,0,0,0,0.018272
2018/06/27 01:08:00.002,n,350,1.8,1.44,2.16,15,73.4,1029.12,0,0,0,0,0.018272
2018/06/27 01:09:00.000,n,278,1.8,1.8,2.16,15.1,73.3,1029.12,0,0,0,0,0.01564
2018/06/27 01:10:00.012,n,211,2.52,1.8,2.88,15,73.3,1029.02,0,0,0,0,0.01564
2018/06/27 01:11:00.009,n,270,3.24,2.88,3.6,15,73.3,1029.02,0,0,0,0,0.027008
2018/06/27 01:12:00.003,n,262,3.6,2.88,4.32,15,73.4,1029.02,0,0,0,0,0.031395
2018/06/27 01:13:00.000,n,242,3.6,3.24,3.96,15,73.4,1029.12,0,0,0,0,0.030518
2018/06/27 01:14:00.000,n,238,3.6,3.24,4.32,15,73.5,1029.12,0,0,0,0,0.033989
2018/06/27 01:15:00.000,n,246,4.68,4.68,5.04,15,73.6,1029.12,0,0,0,0,0.032234
2018/06/27 01:16:00.006,n,254,3.6,3.24,3.96,15,73.6,1029.22,0,0,0,0,0.033112
2018/06/27 01:17:00.003,n,285,3.24,2.16,3.96,15,73.6,1029.22,0,0,0,0,0.031395
2018/06/27 01:18:00.002,n,274,5.4,5.04,6.12,15,73.5,1029.22,0,0,0,0,0.036583
2018/06/27 01:19:00.000,n,288,1.8,1.08,2.16,15,73.5,1029.22,0,0,0,0,0.039215
2018/06/27 01:20:00.012,n,264,3.96,3.6,4.32,14.9,73.6,1029.22,0,0,0,0,0.035744
2018/06/27 01:21:00.009,n,271,6.12,5.4,6.48,14.9,73.5,1029.22,0,0,0,0,0.035744
2018/06/27 01:22:00.000,n,268,5.76,5.76,6.12,14.9,73.6,1029.22,0,0,0,0,0.03746
2018/06/27 01:23:00.000,n,275,5.04,5.04,5.4,14.8,73.7,1029.12,0,0,0,0,0.036583
2018/06/27 01:24:00.001,n,288,1.08,0.72,1.44,14.8,73.9,1029.02,0,0,0,0,0.033989
2018/06/27 01:25:00.000,n,276,1.08,0,1.44,14.8,74,1029.02,0,0,0,0,0.035744
2018/06/27 01:26:00.000,n,236,1.44,0.72,2.16,14.8,74.1,1029.02,0,0,0,0,0.034866
2018/06/27 01:27:00.008,n,285,1.44,1.08,1.8,14.8,74.2,1029.02,0,0,0,0,0.029602
2018/06/27 01:28:00.005,n,272,3.24,2.88,3.6,14.8,74.2,1029.12,0,0,0,0,0.030518
2018/06/27 01:29:00.003,n,284,1.44,1.08,1.8,14.8,74.1,1029.12,0,0,0,0,0.029602
2018/06/27 01:30:00.000,n,250,2.52,2.52,2.88,14.8,74.2,1029.22,0,0,0,0,0.030518
2018/06/27 01:31:00.000,n,251,3.24,2.88,3.24,14.9,74.1,1029.32,0,0,0,0,0.029602
2018/06/27 01:32:00.000,n,233,2.52,2.16,2.88,14.9,74.1,1029.42,0,0,0,0,0.031395
2018/06/27 01:33:00.000,n,336,2.16,2.16,2.52,14.9,74.1,1029.32,0,0,0,0,0.029602
2018/06/27 01:34:00.005,n,337,2.16,1.8,2.52,14.9,74.3,1029.32,0,0,0,0,0.030518
2018/06/27 01:35:00.002,n,305,1.8,1.44,2.16,14.9,74.2,1029.22,0,0,0,0,0.029602
2018/06/27 01:36:00.000,n,227,1.8,1.44,2.16,15,74,1029.22,0,0,0,0,0.028763
2018/06/27 01:37:00.011,n,272,0.36,0,0.72,15,73.8,1029.12,0,0,0,0,0.027885
2018/06/27 01:38:00.010,n,249,0.72,0.72,1.44,15,73.7,1029.12,0,0,0,0,0.028763
2018/06/27 01:39:00.006,n,20,2.16,1.8,2.88,15,73.9,1029.02,0,0,0,0,0.029602
2018/06/27 01:40:00.000,n,21,2.52,1.44,3.96,15.1,73.6,1029.02,0,0,0,0,0.031395
2018/06/27 01:41:00.001,n,344,2.52,1.8,2.88,15.1,73.4,1029.02,0,0,0,0,0.029602
2018/06/27 01:42:00.000,n,265,1.8,1.08,2.52,15.1,73.2,1029.02,0,0,0,0,0.030518
2018/06/27 01:43:00.000,n,323,2.16,1.08,2.88,15.1,73.2,1029.02,0,0,0,0,0.028763
2018/06/27 01:44:00.009,n,320,0.72,0.36,1.08,15.1,73.2,1029.02,0,0,0,0,0.039215
2018/06/27 01:45:00.006,n,317,3.6,3.24,3.96,15.2,73,1029.12,0,0,0,0,0.03746
2018/06/27 01:46:00.003,n,246,2.52,1.8,3.6,15.2,72.8,1029.12,0,0,0,0,0.032234
2018/06/27 01:47:00.000,n,279,6.12,5.4,6.84,15.2,72.7,1029.22,0,0,0,0,0.032234
2018/06/27 01:48:00.014,n,250,2.52,2.16,2.88,15.2,72.8,1029.32,0,0,0,0,0.033112
2018/06/27 01:49:00.000,n,300,5.04,4.32,5.4,15.2,73,1029.32,0,0,0,0,0.033989
2018/06/27 01:50:00.000,n,292,4.32,3.24,4.68,15.2,73.1,1029.42,0,0,0,0,0.033112
2018/06/27 01:51:00.005,n,269,3.6,3.24,3.96,15.2,73.2,1029.52,0,0,0,0,0.033112
2018/06/27 01:52:00.002,n,256,3.24,2.52,3.6,15.2,73.3,1029.62,0,0,0,0,0.033989
2018/06/27 01:53:00.000,n,241,3.6,2.88,4.32,15.2,73.3,1029.62,0,0,0,0,0.039215
2018/06/27 01:54:00.000,n,284,2.52,1.8,3.6,15.2,73.5,1029.62,0,0,0,0,0.030518
2018/06/27 01:55:00.010,n,252,6.12,5.76,6.84,15.2,73.4,1029.62,0,0,0,0,0.035744
2018/06/27 01:56:00.007,n,280,3.96,2.52,5.04,15.1,73.4,1029.62,0,0,0,0,0.038338
2018/06/27 01:57:00.005,n,258,5.4,5.4,5.4,15.1,73.5,1029.52,0,0,0,0,0.042686
2018/06/27 01:58:00.002,n,263,5.4,5.04,5.4,15.1,73.5,1029.52,0,0,0,0,0.033112
2018/06/27 01:59:00.000,n,263,4.32,2.88,5.4,15.1,73.6,1029.52,0,0,0,0,0.038338
2018/06/27 02:00:00.000,n,270,6.84,6.48,7.56,15.1,73.6,1029.52,0,0,0,0,0.038338
2018/06/27 02:01:00.000,n,259,5.76,5.4,6.12,15.1,73.6,1029.52,0,0,0,0,0.039215
2018/06/27 02:02:00.007,n,271,5.4,5.04,6.84,15.1,73.6,1029.52,0,0,0,0,0.040092
2018/06/27 02:03:00.005,n,274,7.2,6.84,7.92,15.1,73.5,1029.52,0,0,0,0,0.045319
2018/06/27 02:04:00.002,n,273,4.68,3.96,5.76,15.1,73.5,1029.52,0,0,0,0,0.03746
2018/06/27 02:05:00.000,n,268,5.4,4.68,5.76,15.1,73.4,1029.62,0,0,0,0,0.03746
2018/06/27 02:06:00.013,n,272,4.68,4.68,4.68,15.1,73.4,1029.62,0,0,0,0,0.038338
2018/06/27 02:07:00.000,n,15,0.36,0,1.08,15.1,73.6,1029.72,0,0,0,0,0.034866
2018/06/27 02:08:00.000,n,332,2.88,2.52,3.6,15.1,73.8,1029.72,0,0,0,0,0.034866
2018/06/27 02:09:00.005,n,311,3.96,3.24,5.4,15.1,73.6,1029.72,0.01,0.1,0,0,0.045319
2018/06/27 02:10:00.000,n,290,3.24,2.52,3.6,15.1,73.6,1029.72,0.01,0,0,0,0.036583
2018/06/27 02:11:00.000,n,293,1.8,1.44,2.16,15.2,73.5,1029.72,0.01,0,0,0,0.035744
2018/06/27 02:12:00.005,n,321,4.32,3.24,6.12,15.2,73.4,1029.72,0.01,0,0,0,0.045319
2018/06/27 02:13:00.010,n,313,5.04,4.68,5.4,15.2,73.2,1029.62,0.01,0,0,0,0.034866
2018/06/27 02:14:00.000,n,280,1.8,1.44,2.16,15.2,73.6,1029.52,0.01,0,0,0,0.03746
2018/06/27 02:15:00.005,n,305,2.88,2.52,3.6,15.3,73.5,1029.42,0.01,0,0,0,0.038338
2018/06/27 02:16:00.000,n,254,1.08,1.08,1.8,15.3,73.5,1029.32,0.01,0,0,0,0.035744
2018/06/27 02:17:00.000,n,234,0.36,0,0.72,15.3,73.7,1029.22,0.01,0,0,0,0.03746
2018/06/27 02:18:00.004,n,122,0.36,0.36,0.72,15.3,73.7,1029.22,0.01,0,0,0,0.038338
2018/06/27 02:19:00.000,n,142,0.72,0.72,0.72,15.2,73.7,1029.22,0.01,0,0,0,0.035744
2018/06/27 02:20:00.000,n,150,0.72,0.72,0.72,15.2,73.6,1029.12,0.01,0,0,0,0.039215
2018/06/27 02:21:00.005,n,209,1.44,1.08,1.44,15.2,73.6,1029.12,0.01,0,0,0,0.039215
2018/06/27 02:22:00.010,n,207,2.52,1.8,2.52,15.2,73.8,1029.12,0.01,0,0,0,0.036583
2018/06/27 02:23:00.000,n,192,2.52,2.16,2.52,15.2,74.1,1029.02,0.01,0,0,0,0.039215
2018/06/27 02:24:00.004,n,199,1.08,0.72,2.16,15.2,74,1029.02,0.01,0,0,0,0.033112
2018/06/27 02:25:00.000,n,224,2.88,2.16,2.88,15.2,74,1028.92,0.01,0,0,0,0.034866
2018/06/27 02:26:00.000,n,220,2.88,2.52,3.24,15.1,74,1028.92,0.01,0,0,0,0.043564
2018/06/27 02:27:00.004,n,239,2.16,1.8,2.52,15.1,74,1028.92,0.01,0,0,0,0.035744
2018/06/27 02:28:00.000,n,164,0.72,0.36,1.08,15.1,74.1,1028.92,0.01,0,0,0,0.03746
2018/06/27 02:29:00.000,n,98,0.72,0.36,1.08,15.1,74.3,1028.92,0.01,0,0,0,0.036583
2018/06/27 02:30:00.004,n,137,2.52,1.8,3.6,15.1,74.4,1028.92,0.01,0,0,0,0.043564
2018/06/27 02:31:00.010,n,192,2.88,1.8,3.6,15.1,74.6,1028.92,0.01,0,0,0,0.038338
2018/06/27 02:32:00.000,n,138,0.36,0.36,1.08,15.1,74.6,1028.92,0.01,0,0,0,0.036583
2018/06/27 02:33:00.004,n,309,0.72,0.36,1.08,15.1,74.7,1028.92,0.01,0,0,0,0.036583
2018/06/27 02:34:00.000,n,237,2.16,1.8,2.52,15.1,74.6,1028.92,0.01,0,0,0,0.035744
2018/06/27 02:35:00.000,n,265,4.32,3.6,5.76,15.1,74.2,1029.02,0.01,0,0,0,0.03746
2018/06/27 02:36:00.004,n,273,2.52,2.16,2.88,15.1,74,1029.02,0.01,0,0,0,0.03746
2018/06/27 02:37:00.000,n,278,3.6,3.24,4.68,15,73.9,1029.12,0.01,0,0,0,0.041809
2018/06/27 02:38:00.000,n,274,4.32,3.96,4.68,15,73.8,1029.12,0.01,0,0,0,0.039215
2018/06/27 02:39:00.004,n,3,1.08,0.72,2.16,15,74.1,1029.12,0.01,0,0,0,0.042686
2018/06/27 02:40:00.010,n,92,1.44,1.08,3.24,15,75,1029.22,0.01,0,0,0,0.03746
2018/06/27 02:41:00.000,n,60,4.68,1.8,7.2,15.1,74.8,1029.22,0.01,0,0,0,0.03746
2018/06/27 02:42:00.004,n,105,5.76,5.4,6.12,15.1,74.6,1029.22,0.01,0,0,0,0.038338
2018/06/27 02:43:00.000,n,158,1.44,0.72,2.16,15.1,74.6,1029.22,0.01,0,0,0,0.036583
2018/06/27 02:44:00.001,n,67,2.88,2.16,3.96,15.1,74.9,1029.22,0.01,0.3,0,0,0.033112
2018/06/27 02:45:00.000,n,107,6.48,5.76,6.84,15.1,75,1029.22,0.04,0.5,0,0,0.04097
2018/06/27 02:46:00.000,n,153,3.6,2.16,5.04,15,75.6,1029.22,0.05,1.2,0,0,0.038338
2018/06/27 02:47:00.002,n,127,5.04,4.68,6.12,14.9,76,1029.22,0.07,1,0,0,0.036583
2018/06/27 02:48:00.000,n,203,3.24,2.88,3.6,14.9,76.6,1029.12,0.07,0.5,0,0,0.03746
2018/06/27 02:49:00.000,n,177,2.52,1.44,3.24,14.8,77.1,1029.12,0.07,0,0,0,0.03746
2018/06/27 02:50:00.011,n,145,9.72,8.64,10.8,14.7,77.6,1029.02,0.07,0,0,0,0.03746
2018/06/27 02:51:00.009,n,167,6.84,5.76,7.92,14.7,77.9,1028.92,0.07,0,0,0,0.03746
2018/06/27 02:52:00.000,n,167,9,7.56,11.16,14.6,78.5,1028.92,0.07,0,0,0,0.034866
2018/06/27 02:53:00.004,n,194,3.96,1.44,5.76,14.6,78.9,1028.82,0.07,0,0,0,0.033112
2018/06/27 02:54:00.001,n,189,3.96,3.24,4.68,14.6,79.5,1028.82,0.07,0,0,0,0.033112
2018/06/27 02:55:00.000,n,159,1.8,0.72,3.6,14.6,79.6,1028.72,0.07,0,0,0,0.033989
2018/06/27 02:56:00.000,n,234,0.72,0.36,1.08,14.6,79.6,1028.62,0.07,0,0,0,0.032234
2018/06/27 02:57:00.011,n,263,2.88,2.52,3.24,14.6,79.8,1028.52,0.07,0,0,0,0.033989
2018/06/27 02:58:00.008,n,173,2.52,1.8,3.96,14.6,79.7,1028.42,0.07,0,0,0,0.031395
2018/06/27 02:59:00.005,n,172,1.8,1.08,2.52,14.6,79.8,1028.42,0.07,0,0,0,0.031395
2018/06/27 03:00:00.003,n,191,0.72,0.36,1.08,14.5,80,1028.42,0.07,0,0,0,0.029602
2018/06/27 03:01:00.000,n,186,3.24,2.88,3.96,14.5,80.1,1028.52,0.07,0,0,0,0.033989
2018/06/27 03:02:00.000,n,158,1.8,1.44,2.52,14.5,80.2,1028.62,0.07,0,0,0,0.027885
2018/06/27 03:03:00.000,n,182,4.68,4.32,5.04,14.5,80.4,1028.62,0.07,0,0,0,0.028763
2018/06/27 03:04:00.000,n,182,4.32,2.88,5.04,14.5,80.2,1028.62,0.07,0,0,0,0.036583
2018/06/27 03:05:00.007,n,197,3.6,1.8,4.68,14.5,80.4,1028.62,0.07,0,0,0,0.027885
2018/06/27 03:06:00.004,n,287,4.32,3.24,4.68,14.4,80.7,1028.62,0.07,0,0,0,0.029602
2018/06/27 03:07:00.001,n,307,1.8,1.44,2.16,14.4,80.6,1028.72,0.07,0,0,0,0.033112
2018/06/27 03:08:00.000,n,259,2.16,2.16,2.52,14.4,80.6,1028.82,0.07,0,0,0,0.032234
2018/06/27 03:09:00.012,n,310,1.44,1.08,1.8,14.4,80.6,1028.82,0.07,0,0,0,0.025253
2018/06/27 03:10:00.000,n,296,1.08,1.08,2.16,14.4,80.7,1028.72,0.07,0,0,0,0.026169
2018/06/27 03:11:00.000,n,197,2.88,1.44,3.96,14.3,80.7,1028.72,0.07,0,0,0,0.029602
2018/06/27 03:12:00.005,n,259,2.16,1.44,2.52,14.3,80.8,1028.72,0.07,0,0,0,0.025253
2018/06/27 03:13:00.002,n,137,1.08,0.72,1.8,14.3,80.9,1028.82,0.07,0,0,0,0.024414
2018/06/27 03:14:00.001,n,142,1.44,1.08,2.16,14.3,81.1,1028.82,0.07,0,0,0,0.02182
2018/06/27 03:15:00.000,n,58,2.16,0.72,2.88,14.3,81.8,1028.82,0.07,0,0,0,0.033989
2018/06/27 03:16:00.012,n,39,1.44,1.08,1.8,14.4,81.6,1028.92,0.07,0,0,0,0.022659
2018/06/27 03:17:00.010,n,233,0.72,0.36,0.72,14.4,81.5,1028.92,0.07,0,0,0,0.02182
2018/06/27 03:18:00.008,n,122,3.6,3.6,3.96,14.4,81.5,1029.02,0.07,0,0,0,0.024414
2018/06/27 03:19:00.000,n,150,5.04,4.32,5.4,14.3,81.7,1029.02,0.07,0,0,0,0.020065
2018/06/27 03:20:00.003,n,134,6.12,5.4,6.48,14.3,81.7,1029.02,0.07,0,0,0,0.020905
2018/06/27 03:21:00.000,n,147,6.84,6.48,7.2,14.3,81.5,1029.12,0.07,0,0,0,0.017471
2018/06/27 03:22:00.000,n,170,5.76,5.4,7.2,14.2,81.5,1029.12,0.07,0,0,0,0.027885
2018/06/27 03:23:00.006,n,133,2.88,1.8,3.6,14.2,81.5,1029.12,0.07,0,0,0,0.033951
2018/06/27 03:24:00.003,n,116,2.88,1.08,4.68,14.2,81.9,1029.12,0.07,0,0,0,0.031357
2018/06/27 03:25:00.000,n,338,3.24,2.52,3.6,14.2,82.4,1029.12,0.07,0,0,0,0.033951
2018/06/27 03:26:00.014,n,0,1.08,0.72,1.08,14.3,82.4,1029.12,0.07,0,0,0,0.032234
2018/06/27 03:27:00.010,n,225,3.24,2.88,3.6,14.3,82.1,1029.12,0.07,0,0,0,0.033112
2018/06/27 03:28:00.000,n,279,7.56,7.2,7.92,14.3,81.8,1029.12,0.07,0,0,0,0.032234
2018/06/27 03:29:00.000,n,257,3.96,3.6,4.32,14.2,81.9,1029.22,0.07,0,0,0,0.027885
2018/06/27 03:30:00.003,n,307,1.44,1.44,2.16,14.2,82.1,1029.22,0.07,0,0,0,0.028763
2018/06/27 03:31:00.000,n,253,5.4,4.68,5.76,14.2,81.9,1029.32,0.07,0,0,0,0.02697
2018/06/27 03:32:00.000,n,194,1.44,0.72,2.16,14.2,82,1029.32,0.07,0,0,0,0.030479
2018/06/27 03:33:00.000,n,253,6.12,5.04,6.84,14.1,81.6,1029.22,0.07,0,0,0,0.032234
2018/06/27 03:34:00.009,n,252,4.32,2.88,5.04,14.1,81.9,1029.22,0.07,0,0,0,0.029602
2018/06/27 03:35:00.005,n,250,5.4,4.68,7.2,14.1,82,1029.12,0.07,0,0,0,0.029602
2018/06/27 03:36:00.002,n,268,6.12,5.4,7.2,14.1,82.1,1029.12,0.07,0,0,0,0.028763
2018/06/27 03:37:00.000,n,248,4.68,3.96,4.68,14.1,82.2,1029.12,0.07,0,0,0,0.027885
2018/06/27 03:38:00.000,n,304,3.96,3.6,5.04,14,82.3,1029.12,0.07,0,0,0,0.026131
2018/06/27 03:39:00.000,n,262,3.6,3.24,4.32,14,82.4,1029.12,0.07,0,0,0,0.032234
2018/06/27 03:40:00.000,n,262,2.88,2.16,3.24,14,82.6,1029.12,0.07,0,0,0,0.032234
2018/06/27 03:41:00.006,n,301,0.72,0.36,0.72,14.1,82.9,1029.12,0.07,0,0,0,0.031357
2018/06/27 03:42:00.003,n,104,1.08,0.36,1.44,14.1,82.8,1029.12,0.07,0,0,0,0.026131
2018/06/27 03:43:00.000,n,223,3.96,2.88,6.12,14.1,82.6,1029.22,0.07,0,0,0,0.024376
2018/06/27 03:44:00.014,n,265,1.44,1.08,1.8,14.1,82.6,1029.22,0.07,0,0,0,0.025253
2018/06/27 03:45:00.011,n,241,3.6,2.88,4.68,14,82.6,1029.22,0.07,0,0,0,0.028763
2018/06/27 03:46:00.000,n,290,3.24,2.88,3.6,14,82.7,1029.22,0.07,0,0,0,0.025253
2018/06/27 03:47:00.000,n,258,5.4,5.04,6.12,14,82.6,1029.22,0.07,0,0,0,0.024376
2018/06/27 03:48:00.002,n,281,5.04,4.32,5.4,14,82.7,1029.22,0.07,0,0,0,0.025253
2018/06/27 03:49:00.000,n,256,8.64,7.92,9,14,82.7,1029.22,0.07,0,0,0,0.025253
2018/06/27 03:50:00.000,n,251,5.04,3.96,5.4,14,82.8,1029.22,0.07,0,0,0,0.024376
2018/06/27 03:51:00.010,n,298,2.88,1.08,4.32,14,82.8,1029.32,0.07,0,0,0,0.025253
2018/06/27 03:52:00.007,n,269,5.4,4.68,6.12,14,82.9,1029.32,0.07,0,0,0,0.029602
2018/06/27 03:53:00.005,n,244,4.68,3.96,5.76,14,82.8,1029.22,0.07,0,0,0,0.027885
2018/06/27 03:54:00.003,n,240,3.6,3.24,4.68,14,82.9,1029.22,0.07,0,0,0,0.027885
2018/06/27 03:55:00.001,n,258,4.32,3.6,5.4,14,82.8,1029.12,0.07,0,0,0,0.030479
2018/06/27 03:56:00.000,n,268,2.88,2.52,2.88,13.9,82.9,1029.12,0.07,0,0,0,0.029602
2018/06/27 03:57:00.000,n,9,1.8,0.72,2.52,13.9,83.2,1029.12,0.07,0,0,0,0.028763
2018/06/27 03:58:00.000,n,185,1.08,0.36,1.08,14,83.7,1029.02,0.07,0,0,0,0.022621
2018/06/27 03:59:00.008,n,207,1.8,1.08,2.16,14,83.2,1028.92,0.07,0,0,0,0.029602
2018/06/27 04:00:00.007,n,170,3.24,2.88,3.6,14,82.8,1028.82,0.07,0,0,0,0.028763
2018/06/27 04:01:00.005,n,237,2.52,1.44,3.24,14,83.1,1028.82,0.07,0,0,0,0.028763
2018/06/27 04:02:00.002,n,305,4.68,4.32,5.4,14,82.8,1028.72,0.07,0,0,0,0.028763
2018/06/27 04:03:00.001,n,218,0.72,0.36,1.08,13.9,82.7,1028.72,0.07,0,0,0,0.030518
2018/06/27 04:04:00.000,n,39,0.72,0.36,1.08,13.9,82.9,1028.72,0.07,0,0,0,0.034866
2018/06/27 04:05:00.000,n,151,8.64,7.92,9,13.9,82.7,1028.72,0.07,0,0,0,0.036583
2018/06/27 04:06:00.000,n,141,3.96,3.24,4.68,13.9,82.7,1028.72,0.07,0,0,0,0.033951
2018/06/27 04:07:00.007,n,168,7.2,6.84,7.56,13.9,82.7,1028.62,0.07,0,0,0,0.035744
2018/06/27 04:08:00.004,n,145,6.12,5.76,6.12,13.8,82.8,1028.62,0.07,0,0,0,0.027008
2018/06/27 04:09:00.001,n,139,4.68,0.72,7.2,13.8,82.8,1028.62,0.07,0,0,0,0.026169
2018/06/27 04:10:00.000,n,134,3.96,3.24,5.4,13.8,83.1,1028.62,0.07,0,0,0,0.033951
2018/06/27 04:11:00.014,n,157,7.2,6.12,9,13.9,82.9,1028.62,0.07,0,0,0,0.027885
2018/06/27 04:12:00.011,n,164,8.64,7.92,9.36,13.8,82.8,1028.72,0.07,0,0,0,0.027885
2018/06/27 04:13:00.000,n,127,4.32,3.6,5.4,13.8,83,1028.72,0.07,0,0,0,0.031357
2018/06/27 04:14:00.000,n,160,7.56,6.48,8.28,13.8,83,1028.72,0.07,0,0,0,0.027885
2018/06/27 04:15:00.002,n,171,10.440002,7.92,11.52,13.8,83.2,1028.62,0.07,0,0,0,0.026169
2018/06/27 04:16:00.000,n,172,7.56,7.56,8.28,13.8,83.2,1028.52,0.07,0,0,0,0.033951
2018/06/27 04:17:00.000,n,172,7.2,5.76,8.28,13.8,83.2,1028.52,0.07,0,0,0,0.026169
2018/06/27 04:18:00.009,n,165,5.04,2.16,6.12,13.8,83.5,1028.42,0.07,0,0,0,0.034866
2018/06/27 04:19:00.007,n,176,2.16,0,4.68,13.9,83.4,1028.42,0.07,0,0,0,0.026169
2018/06/27 04:20:00.005,n,167,6.84,6.48,7.92,13.8,83.2,1028.32,0.07,0,0,0,0.030518
2018/06/27 04:21:00.002,n,189,3.96,3.24,5.04,13.8,83.3,1028.32,0.07,0,0,0,0.023537
2018/06/27 04:22:00.000,n,142,3.96,3.6,4.32,13.8,83.2,1028.32,0.07,0,0,0,0.026169
2018/06/27 04:23:00.000,n,134,2.88,1.08,5.04,13.8,83.4,1028.32,0.07,0,0,0,0.027008
2018/06/27 04:24:00.000,n,126,1.44,0.72,2.16,13.8,83.4,1028.32,0.07,0,0,0,0.028763
2018/06/27 04:25:00.000,n,158,9.72,9.36,10.08,13.8,83.2,1028.22,0.07,0,0,0,0.029602
2018/06/27 04:26:00.008,n,265,3.96,2.88,5.04,13.8,83.3,1028.22,0.07,0,0,0,0.025253
2018/06/27 04:27:00.005,n,152,6.12,5.04,6.84,13.8,83.2,1028.22,0.07,0,0,0,0.025253
2018/06/27 04:28:00.003,n,133,3.6,1.44,5.4,13.8,83.4,1028.22,0.07,0,0,0,0.022659
2018/06/27 04:29:00.001,n,139,3.24,2.16,4.32,13.8,83.4,1028.12,0.07,0,0,0,0.022659
2018/06/27 04:30:00.015,n,167,7.92,6.84,8.64,13.8,83.2,1028.12,0.07,0,0,0,0.025253
2018/06/27 04:31:00.000,n,148,7.56,6.84,8.28,13.8,83.2,1028.22,0.07,0,0,0,0.02182
2018/06/27 04:32:00.000,n,158,5.04,4.32,6.12,13.8,83.5,1028.22,0.07,0,0,0,0.028763
2018/06/27 04:33:00.000,n,175,9,8.64,9.72,13.8,83.3,1028.22,0.07,0,0,0,0.023537
2018/06/27 04:34:00.005,n,136,5.76,5.04,6.12,13.8,83.3,1028.32,0.07,0,0,0,0.027885
2018/06/27 04:35:00.001,n,146,5.04,2.88,7.92,13.8,83.5,1028.32,0.07,0,0,0,0.022659
2018/06/27 04:36:00.000,n,169,7.2,6.48,7.92,13.8,83.7,1028.22,0.07,0,0,0,0.026169
2018/06/27 04:37:00.012,n,137,3.96,1.44,5.76,13.8,83.8,1028.22,0.07,0,0,0,0.031357
2018/06/27 04:38:00.010,n,234,4.68,3.96,6.48,13.8,83.8,1028.22,0.07,0,0,0,0.032234
2018/06/27 04:39:00.008,n,141,6.12,5.76,6.48,13.8,83.7,1028.22,0.07,0,0,0,0.037422
2018/06/27 04:40:00.000,n,168,8.28,7.56,8.64,13.8,83.9,1028.22,0.07,0,0,0,0.040054
2018/06/27 04:41:00.000,n,175,5.04,4.32,5.76,13.8,83.8,1028.22,0.07,0,0,0,0.030441
2018/06/27 04:42:00.001,n,163,8.64,8.28,9,13.8,83.8,1028.12,0.07,0,0,0,0.033951
2018/06/27 04:43:00.000,n,135,5.4,4.68,6.12,13.8,83.8,1028.12,0.07,0,0,0,0.033073
2018/06/27 04:44:00.000,n,149,8.28,6.48,9,13.8,83.9,1028.02,0.07,0,0,0,0.029602
2018/06/27 04:45:00.000,n,181,7.2,6.84,7.92,13.8,84,1028.02,0.07,0,0,0,0.032234
2018/06/27 04:46:00.009,n,155,9.72,8.64,10.8,13.8,84.1,1028.02,0.07,0,0,0,0.033951
2018/06/27 04:47:00.008,n,219,5.04,4.32,5.4,13.8,84.2,1027.92,0.07,0,0,0,0.031357
2018/06/27 04:48:00.006,n,188,7.2,6.48,8.28,13.8,84.4,1027.92,0.07,0,0,0,0.027847
2018/06/27 04:49:00.000,n,187,3.24,2.52,3.6,13.8,84.4,1027.92,0.07,0,0,0,0.033951
2018/06/27 04:50:00.001,n,235,3.24,2.52,4.68,13.8,84.4,1027.82,0.07,0,0,0,0.029602